sat.trackr.live / text

‹ back to catalog

IRNSS-1E

NORAD 41241 · 2016-003A

PAYLOAD ACTIVE UNKNOWN

§ Identity

Operator
Country
IND
Launch date
2016-01-20
Launch site
SRILR
Launch vehicle
Mass (kg)
RCS (m²)
9.94

Purposes: comms, nav

External: N2YO · Heavens-Above · Gunter

§ Orbital elements

Epoch: 2026-09-03T21:43:23.861856Z

Period
1,436.16 min
Inclination
33.4054°
Eccentricity
0.0021361
Mean motion
1.00267484 rev/d
Perigee alt
35,697.7 km
Apogee alt
35,877.9 km
Semi-major
42,165.9 km
B*
0.0000e+0
RAAN
58.6104°
Arg perigee
177.5733°
Mean anomaly
184.3576°
Rev number
3,887

§ Raw data

IRNSS-1E1 41241U 16003A   26246.90513729 -.00000299  00000+0  00000+0 0  99972 41241  33.4054  58.6104 0021361 177.5733 184.3576  1.00267484 38875

JSON: /api/v1/satellites/41241 · /tle

For live sub-satellite position, see the globe view (requires WebGL).

§ Visibility from observer

Set your observer location to see the next 7 days of passes ≥ 10°. The values pass through the URL so the page stays shareable.

No JS? Fill the form by hand. The geolocation button needs JavaScript.